Weather in Askarovo

Russia / Republic of Bashkortostan     53˚20′10″N   58˚30′41″E
temp.,
°C
wind,
m/s
gust,
m/s
humid.,
%
clouds,
%
prec.,
mm/h
press.,
hPa
HPBL,
m
28 november, sat
sat2823:00−9˚nne1196100 0.6 103024
02:00−10˚nw119496 0.1 103221
05:00−11˚wnw119277 0.1 103421
08:00−11˚w119112 0.0 103621
11:00−9˚w11876 0.0 103842
14:00−7˚s00810 0.0 1039182
17:00−10˚sw11890 0.0 104121
20:00−10˚wsw11880 0.0 104321
29 november, sun
sun2923:00−11˚w118824 0.0 104521
02:00−11˚wnw008873 0.0 104621
05:00−11˚w008774 0.0 104821
08:00−10˚s1187100 0.0 104821
11:00−9˚ssw1187100 0.0 105023
14:00−7˚se1187100 0.0 104979
17:00−9˚sse1194100 0.0 105021
20:00−8˚ese1196100 0.2 105121
30 november, mon
mon3023:00−9˚e009798 0.3 105121
02:00−11˚nne119772 0.0 105121
05:00−11˚nw119557 0.0 105221
08:00−11˚nnw11930 0.0 105221
11:00−9˚nne12900 0.0 105228
14:00−8˚ne11790 0.0 1052131
17:00−11˚nne11830 0.0 105221
20:00−11˚nne22810 0.0 105221
1 december, tue
tue123:00−12˚nne22830 0.0 105221
02:00−12˚nne12850 0.0 105221
05:00−13˚nne22870 0.0 105220
08:00−13˚nne22880 0.0 105120
11:00−12˚ne12860 0.0 105174
14:00−10˚ne23810 0.0 1050247
17:00−13˚ne12900 0.0 105020
20:00−14˚ne11910 0.0 105020
2 december, wed
wed223:00−14˚ne11920 0.0 105020
02:00−15˚ne11920 0.0 105020
05:00−15˚nne128916 0.0 105020
08:00−15˚nne12850 0.0 104920
11:00−13˚ne11800 0.0 104935
14:00−11˚ne11740 0.0 1047101
17:00−13˚n11810 0.0 104621
20:00−13˚nnw11780 0.0 104621